Location: Perryvale
(54.4667°N, 113.3833°W)
Time: 23:27:21
(UTC+00:00)

Vanguard 1 - Pass Details

Date: 21 May 2024
Orbit: 652 x 3825 km, 34.2° (Epoch: 13 June)

Event Time Altitude Azimuth Distance (km) Brightness Sun altitude
Rises 03:04:17 0° 196° (SSW) 4,567 13.3 3.7°
Reaches altitude 10° 03:08:09 10° 179° (S) 4,055 12.9 3.2°
Maximum altitude 03:15:17 19° 139° (SE) 4,164 12.7 2.3°
Drops below altitude 10° 03:25:04 10° 103° (ESE) 5,819 13.4 1.1°
Sets 03:32:30 0° 90° (E) 7,385 14.0 0.3°
